This is the latest recevied weather packets stored in our database for station/object K5YNC. If no packets are shown the sender has not sent any weather packets the latest 1 day(s).
| Time | Temp. | Humidity | Pressure | Rain* | Wind** | Luminosity | Snow |
|---|---|---|---|---|---|---|---|
| 1778031561 | 14.44° C | 80% | 1010.2 hPa | 0 mm | 1.34 m/s, 352° | 0 W/m² | - |
| 1778031260 | 15° C | 79% | 1009.9 hPa | 0 mm | 1.79 m/s, 99° | 0 W/m² | - |
| 1778030955 | 15° C | 79% | 1010 hPa | 0 mm | 1.34 m/s, 202° | 0 W/m² | - |
| 1778030652 | 15.56° C | 79% | 1009.6 hPa | 0 mm | 1.79 m/s, 351° | 0 W/m² | - |
| 1778030349 | 15.56° C | 78% | 1009.8 hPa | 0 mm | 1.34 m/s, 276° | 1 W/m² | - |
| 1778030046 | 15.56° C | 78% | 1009.7 hPa | 0 mm | 1.79 m/s, 44° | 1 W/m² | - |
| 1778029743 | 15.56° C | 78% | 1009.4 hPa | 0 mm | 2.24 m/s, 285° | 3 W/m² | - |
| 1778029442 | 16.11° C | 77% | 1009.5 hPa | 0 mm | 1.79 m/s, 289° | 5 W/m² | - |
| 1778029138 | 16.11° C | 77% | 1009.4 hPa | 0 mm | 1.79 m/s, 351° | 10 W/m² | - |
| 1778028835 | 16.11° C | 77% | 1009.2 hPa | 0 mm | 0.89 m/s, 303° | 11 W/m² | - |
| 1778028531 | 16.67° C | 77% | 1009.2 hPa | 0 mm | 1.79 m/s, 311° | 14 W/m² | - |
| 1778028229 | 16.67° C | 77% | 1009.6 hPa | 0 mm | 0.89 m/s, 316° | 20 W/m² | - |
| 1778027925 | 16.67° C | 77% | 1009.5 hPa | 0 mm | 0.89 m/s, 75° | 26 W/m² | - |
| 1778027621 | 16.67° C | 76% | 1009.4 hPa | 0 mm | 1.34 m/s, 90° | 32 W/m² | - |
| 1778027318 | 16.67° C | 76% | 1009.2 hPa | 0 mm | 2.24 m/s, 282° | 31 W/m² | - |
| 1778027014 | 17.22° C | 75% | 1008.9 hPa | 0 mm | 1.34 m/s, 268° | 16 W/m² | - |
| 1778026709 | 17.22° C | 76% | 1009.3 hPa | 0 mm | 1.34 m/s, 95° | 19 W/m² | - |
| 1778026407 | 17.22° C | 75% | 1009.4 hPa | 0 mm | 1.34 m/s, 354° | 24 W/m² | - |
| 1778026104 | 17.78° C | 75% | 1009.3 hPa | 0 mm | 1.34 m/s, 310° | 25 W/m² | - |
| 1778025802 | 17.78° C | 74% | 1009 hPa | 0 mm | 2.68 m/s, 332° | 35 W/m² | - |
| 1778025498 | 17.78° C | 74% | 1009.1 hPa | 0 mm | 0.89 m/s, 309° | 42 W/m² | - |
| 1778025196 | 17.78° C | 74% | 1008.9 hPa | 0 mm | 1.79 m/s, 32° | 33 W/m² | - |
| 1778024893 | 17.78° C | 74% | 1008.5 hPa | 0 mm | 1.79 m/s, 0° | 39 W/m² | - |
| 1778024590 | 18.33° C | 73% | 1008.7 hPa | 0 mm | 1.79 m/s, 20° | 43 W/m² | - |
| 1778024287 | 18.33° C | 74% | 1008.8 hPa | 0 mm | 2.24 m/s, 325° | 55 W/m² | - |
* Rain latest hour (hover to see other rain measurements)
** Current wind speed in m/s (hover to see current wind gust speed)